• In Hungary
  • List of Countries
  • For 7 days
  • Water Temperature
  • Satellite Maps
  • Weather Map
  • News
  • Weather Widgets
  • user-avatar
    Login

    Hourly Weather Horodnje

    Today, 21 October, Saturday

    Time Temperature Precipitation Wind Pressure Humidity
    00:00 +9°C° 0 mm 2 mps 746 mmHg 93%
    01:00 +9°C° 0 mm 2 mps 746 mmHg 94%
    02:00 +9°C° 0 mm 2 mps 745 mmHg 94%
    03:00 +8°C° 0 mm 2 mps 745 mmHg 95%
    04:00 +8°C° 0 mm 2 mps 745 mmHg 95%
    05:00 +9°C° 0 mm 1 mps 745 mmHg 95%
    06:00 +9°C° 0 mm 1 mps 745 mmHg 95%
    07:00 +10°C° 0 mm 1 mps 744 mmHg 94%
    08:00 +10°C° 0 mm 1 mps 744 mmHg 93%
    09:00 +11°C° 0 mm 1 mps 744 mmHg 88%
    10:00 +12°C° 0 mm 1 mps 744 mmHg 84%
    11:00 +13°C° 0 mm 1 mps 744 mmHg 79%
    12:00 +14°C° 0 mm 1 mps 743 mmHg 76%
    13:00 +15°C° 0 mm 1 mps 743 mmHg 72%
    14:00 +15°C° 0 mm 2 mps 743 mmHg 69%
    15:00 +15°C° 0 mm 2 mps 743 mmHg 72%
    16:00 +14°C° 0 mm 2 mps 742 mmHg 76%
    17:00 +13°C° 0 mm 2 mps 742 mmHg 79%
    18:00 +13°C° 0 mm 2 mps 742 mmHg 83%
    19:00 +12°C° 0 mm 2 mps 743 mmHg 87%
    20:00 +10°C° 0 mm 2 mps 743 mmHg 91%
    21:00 +10°C° 0 mm 2 mps 743 mmHg 91%
    22:00 +9°C° 0 mm 3 mps 743 mmHg 92%
    23:00 +9°C° 0 mm 3 mps 744 mmHg 92%

    Tomorrow, 22 October, Sunday

    Time Temperature Precipitation Wind Pressure Humidity
    00:00 +8°C° 0 mm 3 mps 744 mmHg 90%
    01:00 +8°C° 0 mm 3 mps 744 mmHg 88%
    02:00 +8°C° 0 mm 3 mps 745 mmHg 86%
    03:00 +7°C° 0 mm 3 mps 745 mmHg 85%
    04:00 +7°C° 0 mm 3 mps 745 mmHg 85%
    05:00 +5°C° 0 mm 3 mps 745 mmHg 84%
    06:00 +5°C° 0 mm 3 mps 745 mmHg 84%
    07:00 +5°C° 0 mm 3 mps 746 mmHg 83%
    08:00 +5°C° 0 mm 3 mps 746 mmHg 82%
    09:00 +5°C° 0 mm 3 mps 746 mmHg 80%
    10:00 +7°C° 0 mm 3 mps 746 mmHg 78%
    11:00 +7°C° 0 mm 3 mps 746 mmHg 76%
    12:00 +7°C° 0 mm 3 mps 746 mmHg 74%
    13:00 +8°C° 0 mm 3 mps 746 mmHg 71%
    14:00 +9°C° 0 mm 3 mps 746 mmHg 69%
    15:00 +8°C° 0 mm 3 mps 745 mmHg 71%
    16:00 +8°C° 0 mm 3 mps 745 mmHg 73%
    17:00 +8°C° 0 mm 2 mps 745 mmHg 75%
    18:00 +7°C° 0 mm 3 mps 745 mmHg 76%
    19:00 +7°C° 0 mm 3 mps 745 mmHg 77%
    20:00 +5°C° 0 mm 3 mps 745 mmHg 78%
    21:00 +5°C° 0 mm 3 mps 745 mmHg 78%
    22:00 +5°C° 0 mm 4 mps 745 mmHg 78%
    23:00 +5°C° 0 mm 4 mps 745 mmHg 78%

    Day after tomorrow, 23 October, Monday

    Time Temperature Precipitation Wind Pressure Humidity
    00:00 +5°C° 0.1 mm 4 mps 744 mmHg 78%
    01:00 +5°C° 0.1 mm 4 mps 744 mmHg 78%
    02:00 +5°C° 0.1 mm 4 mps 744 mmHg 79%
    03:00 +5°C° 0 mm 4 mps 744 mmHg 79%
    04:00 +5°C° 0 mm 4 mps 744 mmHg 79%
    05:00 +4°C° 0 mm 4 mps 743 mmHg 79%
    06:00 +4°C° 0 mm 4 mps 743 mmHg 79%
    07:00 +4°C° 0 mm 4 mps 743 mmHg 79%
    08:00 +4°C° 0 mm 4 mps 743 mmHg 79%
    09:00 +5°C° 0 mm 4 mps 743 mmHg 77%
    10:00 +5°C° 0 mm 4 mps 743 mmHg 76%
    11:00 +6°C° 0 mm 4 mps 743 mmHg 74%
    12:00 +6°C° 0.2 mm 4 mps 743 mmHg 74%
    13:00 +6°C° 0.2 mm 4 mps 744 mmHg 73%
    14:00 +6°C° 0.2 mm 4 mps 744 mmHg 73%
    15:00 +6°C° 0.1 mm 4 mps 744 mmHg 74%
    16:00 +6°C° 0.1 mm 4 mps 744 mmHg 75%
    17:00 +6°C° 0.1 mm 4 mps 744 mmHg 76%
    18:00 +5°C° 0.4 mm 4 mps 744 mmHg 76%
    19:00 +5°C° 0.4 mm 4 mps 745 mmHg 77%
    20:00 +5°C° 0.4 mm 4 mps 745 mmHg 78%
    21:00 +5°C° 0.3 mm 4 mps 745 mmHg 78%
    22:00 +5°C° 0.3 mm 4 mps 746 mmHg 78%
    23:00 +4°C° 0.3 mm 4 mps 746 mmHg 78%

    24 October, Tuesday

    Time Temperature Precipitation Wind Pressure Humidity
    00:00 +4°C° 0.3 mm 4 mps 746 mmHg 78%
    01:00 +4°C° 0.3 mm 4 mps 747 mmHg 77%
    02:00 +4°C° 0.3 mm 4 mps 747 mmHg 77%
    03:00 +3°C° 0 mm 4 mps 747 mmHg 76%
    04:00 +3°C° 0 mm 4 mps 748 mmHg 76%
    05:00 +1°C° 0 mm 4 mps 748 mmHg 76%
    06:00 +1°C° 0 mm 4 mps 749 mmHg 75%
    07:00 +1°C° 0 mm 4 mps 749 mmHg 74%
    08:00 +1°C° 0 mm 4 mps 750 mmHg 74%
    09:00 +3°C° 0 mm 4 mps 750 mmHg 69%
    10:00 +4°C° 0 mm 4 mps 751 mmHg 64%
    11:00 +5°C° 0 mm 4 mps 751 mmHg 60%
    12:00 +5°C° 0 mm 4 mps 752 mmHg 57%
    13:00 +6°C° 0 mm 4 mps 752 mmHg 54%
    14:00 +6°C° 0 mm 4 mps 752 mmHg 52%
    15:00 +5°C° 0 mm 4 mps 752 mmHg 55%
    16:00 +5°C° 0 mm 3 mps 753 mmHg 58%
    17:00 +4°C° 0 mm 3 mps 753 mmHg 60%
    18:00 +3°C° 0 mm 3 mps 753 mmHg 63%
    19:00 +2°C° 0 mm 3 mps 754 mmHg 65%
    20:00 +1°C° 0 mm 3 mps 754 mmHg 68%
    21:00 +1°C° 0 mm 3 mps 754 mmHg 69%
    22:00 +1°C° 0 mm 3 mps 755 mmHg 71%
    23:00 0°C° 0 mm 3 mps 755 mmHg 72%

    25 October, Wednesday

    Time Temperature Precipitation Wind Pressure Humidity
    00:00 0°C° 0 mm 3 mps 755 mmHg 75%
    01:00 -1°C° 0 mm 3 mps 755 mmHg 77%
    02:00 -1°C° 0 mm 2 mps 755 mmHg 79%
    03:00 -1°C° 0 mm 2 mps 756 mmHg 81%
    04:00 -2°C° 0 mm 2 mps 756 mmHg 83%
    05:00 -2°C° 0 mm 2 mps 756 mmHg 85%
    06:00 -2°C° 0 mm 3 mps 756 mmHg 84%
    07:00 -2°C° 0 mm 3 mps 756 mmHg 83%
    08:00 -1°C° 0 mm 3 mps 756 mmHg 82%
    09:00 0°C° 0 mm 3 mps 757 mmHg 75%
    10:00 +2°C° 0 mm 3 mps 757 mmHg 67%
    11:00 +3°C° 0 mm 3 mps 757 mmHg 60%
    12:00 +4°C° 0 mm 3 mps 757 mmHg 57%
    13:00 +4°C° 0 mm 3 mps 757 mmHg 53%
    14:00 +5°C° 0 mm 3 mps 757 mmHg 50%
    15:00 +4°C° 0 mm 3 mps 756 mmHg 54%
    16:00 +4°C° 0 mm 2 mps 756 mmHg 58%
    17:00 +3°C° 0 mm 2 mps 756 mmHg 62%
    18:00 +2°C° 0 mm 2 mps 756 mmHg 65%
    19:00 +1°C° 0 mm 2 mps 757 mmHg 67%
    20:00 +1°C° 0 mm 2 mps 757 mmHg 69%
    21:00 -1°C° 0 mm 2 mps 757 mmHg 70%
    22:00 -1°C° 0 mm 2 mps 757 mmHg 70%
    23:00 -2°C° 0 mm 2 mps 757 mmHg 71%

    26 October, Thursday

    Time Temperature Precipitation Wind Pressure Humidity
    00:00 -2°C° 0 mm 2 mps 757 mmHg 71%
    01:00 -2°C° 0 mm 2 mps 757 mmHg 71%
    02:00 -2°C° 0 mm 2 mps 757 mmHg 72%
    03:00 -2°C° 0 mm 2 mps 756 mmHg 72%
    04:00 -2°C° 0 mm 2 mps 756 mmHg 72%
    05:00 -2°C° 0 mm 2 mps 756 mmHg 72%
    06:00 -2°C° 0 mm 2 mps 756 mmHg 70%
    07:00 -1°C° 0 mm 2 mps 756 mmHg 68%
    08:00 -1°C° 0 mm 2 mps 755 mmHg 66%
    09:00 0°C° 0 mm 3 mps 755 mmHg 61%
    10:00 +2°C° 0 mm 3 mps 755 mmHg 57%
    11:00 +3°C° 0 mm 4 mps 755 mmHg 52%
    12:00 +3°C° 0 mm 4 mps 754 mmHg 51%
    13:00 +4°C° 0 mm 4 mps 753 mmHg 50%
    14:00 +5°C° 0 mm 4 mps 753 mmHg 48%
    15:00 +4°C° 0.1 mm 3 mps 752 mmHg 52%
    16:00 +4°C° 0.1 mm 3 mps 752 mmHg 55%
    17:00 +4°C° 0.1 mm 3 mps 751 mmHg 59%
    18:00 +4°C° 0.4 mm 3 mps 751 mmHg 62%
    19:00 +4°C° 0.4 mm 3 mps 750 mmHg 66%
    20:00 +4°C° 0.4 mm 3 mps 750 mmHg 70%
    21:00 +4°C° 0.1 mm 3 mps 749 mmHg 73%
    22:00 +4°C° 0.1 mm 3 mps 749 mmHg 77%
    23:00 +5°C° 0.1 mm 3 mps 749 mmHg 81%
    Show more